Regional Weather Roundup
Issued by NWS

Home | Current Version | Previous Version | Graphics & Text | Print | Product List | Glossary On
Versions: 1 2 3 4 5 6 7 8 9 10 11 12 13 14 15 16 17 18 19 20 21 22 23 24 25 26 27 28 29 30 31 32 33 34 35 36 37 38 39 40 41 42 43 44 45 46 47 48 49 50
414
ASUS43 KTOP 271459
RWRKS

WEATHER ROUNDUP FOR KANSAS
NATIONAL WEATHER SERVICE GOODLAND KS
1000 AM CDT SAT MAY 27 2017

NOTE:  "FAIR" INDICATES FEW OR NO CLOUDS BELOW 12,000 FEET WITH NO
SIGNIFICANT WEATHER AND/OR OBSTRUCTIONS TO VISIBILITY.

KSZ001>006-013>018-027>032-041>047-271600-
NORTHWEST KANSAS

CITY           SKY/WX    TMP DP  RH WIND       PRES   REMARKS
GOODLAND       CLOUDY    55  53  93 NW20      29.99R
HAYS           CLOUDY    64  57  78 N3        29.88R
HILL CITY      MOSUNNY   66  58  75 W5        29.90R
RUSSELL        CLOUDY    63  58  83 SE7       29.83R
$$

KSZ061>065-074>080-084>089-271600-
SOUTHWEST KANSAS

CITY           SKY/WX    TMP DP  RH WIND       PRES   REMARKS
DODGE CITY     CLOUDY    66  52  60 NE13      29.88R
ELKHART          N/A     59  46  62 N13         N/A
GARDEN CITY    CLOUDY    66  51  58 NE13      29.91R
GREAT BEND     MOSUNNY   71  55  56 E12       29.85R
LIBERAL        CLOUDY    65  57  75 NE14      29.89R
$$

KSZ066>073-081>083-090>101-271600-
SOUTHEAST KANSAS

CITY           SKY/WX    TMP DP  RH WIND       PRES   REMARKS
CHANUTE        CLOUDY    74  68  81 E5        29.82S
COFFEYVILLE    PTSUNNY   79  75  87 E5        29.80F
HUTCHINSON     CLOUDY    68  57  68 NE16G24   29.84F
MEDICINE LODGE   N/A     68  56  65 NE21G33   29.82R
PARSONS        SUNNY     80  72  76 N5        29.81F
WICHITA INTL   PTSUNNY   70  57  63 NE22G32   29.84R
WICHITA JABRA  CLOUDY    69  57  65 N21       29.86R
WICHITA MCCONL CLOUDY    72  59  64 N23G33    29.85R
WINFIELD       SUNNY     80  70  71 NE9       29.78S
$$

KSZ007>012-019>026-033>040-048>060-102>105-271600-
NORTHEAST KANSAS

CITY           SKY/WX    TMP DP  RH WIND       PRES   REMARKS
CONCORDIA      CLOUDY    58  58 100 NE10      29.79F
EMPORIA        CLOUDY    68  60  75 N10       29.90R
LAWRENCE       CLOUDY    66  62  87 NW5       29.91R
MANHATTAN      CLOUDY    63  61  93 CALM      29.92R
OLATHE IND     PTSUNNY   69  59  70 N21       29.89S
OLATHE EXE     MOSUNNY   68  61  78 NE13      29.88F
SALINA         CLOUDY    63  59  87 E12       29.83F
TOPEKA BILLARD CLOUDY    64  61  90 E5        29.91R
TOPEKA FORBES  CLOUDY    66  62  87 N8        29.92R
$$




USA.gov is the U.S. government's official web portal to all federal, state and local government web resources and services.